Location: Boiro
(42.6475°N, 8.8834°W)
Time: 11:05:53
(UTC+01:00)

Altair - Pass Details

Date: 09 December 2021
Orbit: 1501 x 1683 km, 47.2° (Epoch: 17 January)

Event Time Altitude Azimuth Distance (km) Brightness Sun altitude
Rises 20:22:57 0° 291° (WNW) 4,720 11.0 -25.1°
Reaches altitude 10° 20:26:02 10° 292° (WNW) 3,714 10.3 -25.7°
Maximum altitude 20:35:25 86° 23° (NNE) 1,515 7.3 -27.4°
Enters shadow 20:38:26 49° 109° (ESE) 1,870 7.5 -27.9°
